STARLINK-2426, 47836

Orbit data source: Space-Track

STARLINK-2426, 47836 is a payload satellite owned by SpaceX/Seattle (US) in LEO that was launched on Thu, 11 Mar 2021 UTC via an FALCON 9 launch vehicle from the Air Force Eastern Test Range (AFETR). Payload-class satellites include a variety of spacecraft equipped with specific instruments for various scientific and technological missions. These include communications satellites like Starlink; space stations such as the ISS; scientific satellites like the Hubble; Earth observation satellites from companies like Planet Labs, Umbra, and HawkEye 360; GPS; miniature CubeSats for education and research; and military/defense satellites.

Loading next visibility...
Identifier
47836, 2021-018BB
Orbit
LEO
Country
Flag of USUS
Related business
Manufacturer
SpaceX/Seattle
Mission
Operational Commercial Communications
Bus & Motor
STARLINK, Unknown motor
Mass
260 kg wet, ~248 kg dry
Launch date (UTC)
2021-03-11 (5 years ago)
Launch vehicle
FALCON 9
Launch site
Air Force Eastern Test Range (AFETR)
Object type
Payload
Rocket body
Debris
Shape & HBR
Box + 1 Pan, 10.1 m
Radar Cross Section
13.562 m², Large (>1 m²)

Expand to show TLE details & history
Last TLE update: 4 hours ago

TLE from 4 hours ago
0 STARLINK-2426
1 47836U 21018BB  25292.96059257  .00008741  00000-0  60447-3 0  9997
2 47836  53.0528 163.4641 0001380  89.0978 271.0169 15.06429121255381
Epoch: 2025-10-19T23:03Z
TLE epoch observation values (Epoch: 2025-10-19T23:03:15.198Z)
Latitude
-0.00001°
Longitude
148.98101°
Altitude
547.984 km
Speed
7.589 km/s
True Right ascension
10h 53m 51s
True Declination
0° 00' 00"
Sunlit
Object was in daylight at epoch
Visualization orbit readout
Latitude
Unknown
Longitude
Unknown
Altitude
Unknown
Speed
Unknown
Apparent Right ascension
Unknown
Apparent Declination
Unknown
Sunlit
N/A
Visualization observer readout
Local Sidereal Time
22:09:37
Azimuth
Unknown
Elevation
Unknown
Doppler factor
Unknown
Orbital elements
Apogee altitude
548.349 km
Perigee altitude
546.438 km
Semi-major axis
6,925.53 km
Eccentricity
0.00014
Inclination
53.0528°
RAAN
163.4641°
Arg. of periapsis
89.0978°
True anomaly
271.00109°
Mean anomaly
271.0169°
Eccentric anomaly
271.00899°
Mean motion
3.76586 °/min
Orbital period
95.6 mins
BSTAR
0.00060447
Loading maneuver chart data...
Computing Atmospheric mass density...

Documentation

Showing up to 5 results
|